Location: Township of South Roscoe
(37.9570°N, 100.1180°W)
Time: 19:42:33
(UTC+00:00)

COSMO-SKYMED 1 - Pass Details

Date: 17 October 2021
Orbit: 621 x 623 km, 97.9° (Epoch: 03 December)

Event Time Altitude Azimuth Distance (km) Brightness Sun altitude
Rises 12:01:25 0° 170° (S) 2,888 6.2 -10.6°
Reaches altitude 10° 12:03:35 10° 171° (S) 1,986 5.3 -10.1°
Maximum altitude 12:07:55 77° 258° (WSW) 644 2.5 -9.3°
Drops below altitude 10° 12:12:16 10° 345° (NNW) 2,002 5.0 -8.4°
Sets 12:14:29 0° 347° (NNW) 2,913 5.8 -8.0°
